Location: B�rgermoos
(47.6500°N, 9.0667°E)
Time: 08:58:58
(UTC+00:00)

A-11 Canister half - Visible Passes

Search period start: 31 July 2021 00:00
Search period end: 10 August 2021 00:00
Orbit: 1513 x 1687 km, 47.2° (Epoch: 30 July)

Date Brightness Start Highest point End Pass type
(mag) Time Alt. Az. Time Alt. Az. Time Alt. Az.
31 Jul 9.3 19:19:18 10° W 19:29:21 89° S 19:39:37 10° E visible
31 Jul 9.1 21:24:22 10° WNW 21:34:24 69° SSW 21:41:10 24° SE visible
31 Jul 9.8 23:29:49 10° WNW 23:38:19 32° SW 23:39:18 31° SW visible
01 Aug 9.1 21:01:26 10° WNW 21:11:27 71° SSW 21:18:48 21° SE visible
01 Aug 9.7 23:06:47 10° WNW 23:15:27 34° SW 23:16:57 32° SSW visible
02 Aug 9.2 20:38:29 10° WNW 20:48:30 73° SSW 20:56:31 19° ESE visible
02 Aug 9.7 22:43:46 10° WNW 22:52:35 35° SW 22:54:40 33° SSW visible
03 Aug 9.2 20:15:32 10° WNW 20:25:34 75° SSW 20:34:18 15° ESE visible
03 Aug 9.7 22:20:46 10° WNW 22:29:43 37° SW 22:32:27 32° SSW visible
04 Aug 9.2 19:52:35 10° WNW 20:02:37 76° SSW 20:12:09 12° ESE visible
04 Aug 9.7 21:57:46 10° WNW 22:06:51 39° SW 22:10:18 31° S visible
05 Aug 10.8 00:08:00 10° WSW 00:08:28 10° WSW 00:08:28 10° WSW visible
05 Aug 9.2 19:29:39 10° W 19:39:40 78° SSW 19:49:51 10° ESE visible
05 Aug 9.7 21:34:47 10° WNW 21:43:58 41° SW 21:48:13 29° S visible
05 Aug 10.8 23:43:43 10° WSW 23:46:23 12° WSW 23:46:23 12° WSW visible
06 Aug 9.3 19:06:43 10° W 19:16:42 79° SSW 19:26:55 10° ESE visible
06 Aug 9.7 21:11:49 10° WNW 21:21:04 43° SW 21:26:10 26° SSE visible
06 Aug 10.7 23:20:00 10° W 23:24:00 13° WSW 23:24:21 13° SW visible
07 Aug 9.6 20:48:50 10° WNW 20:58:11 45° SW 21:04:11 23° SSE visible
07 Aug 10.6 22:56:30 10° W 23:01:12 14° WSW 23:02:22 14° SW visible
08 Aug 9.6 20:25:53 10° WNW 20:35:17 47° SW 20:42:16 20° SSE visible
08 Aug 10.6 22:33:07 10° W 22:38:23 16° SW 22:40:26 15° SW visible
09 Aug 9.6 20:02:55 10° WNW 20:12:24 49° SW 20:20:23 16° SSE visible
09 Aug 10.6 22:09:49 10° W 22:15:35 17° SW 22:18:34 15° SW visible
